Lapse_Rate
5.2 4.9 5.6 5.8 6.5 6.5 6.5 6.5 6.5 6.5 6.5 7.0 7.3 6.6 6.5 6.4 6.5 6.5 5.0 5.2 5.2 5.0 5.6 6.0 5.6 5.4 5.3 5.3 5.5 5.7 5.7 5.8 5.6 5.7 6.2 6.6 6.4 6.3 6.0 6.3 6.6 6.3 6.4 6.2 6.2 6.7 7.0 7.1 6.8
4.8 6.1 6.5 5.9 6.5 6.5 6.5 6.5 6.5 6.5 6.8 7.2 7.2 6.6 6.7 6.5 7.7 6.8 5.6 5.6 5.2 4.8 4.7 4.8 5.0 5.2 5.2 5.9 5.7 5.7 6.0 6.0 6.1 5.8 6.0 6.7 6.6 6.5 6.5 6.5 6.8 6.6 6.6 6.5 6.7 6.9 7.1 7.0 7.0
6.2 8.0 6.1 6.5 6.5 6.5 6.5 6.5 6.5 6.7 7.1 7.0 6.9 7.3 7.3 6.9 7.7 7.1 5.5 5.2 5.0 4.2 3.8 4.7 5.1 5.8 5.8 6.0 5.9 6.0 6.1 6.1 6.1 6.3 6.5 6.4 6.5 6.6 6.4 6.7 6.5 6.5 6.6 6.5 6.7 7.0 6.9 7.1 7.1
6.3 5.8 5.7 6.5 6.5 6.5 6.5 6.5 6.6 6.5 6.9 6.7 7.1 6.5 7.8 8.4 8.1 6.2 5.7 5.5 4.2 3.6 4.1 5.2 5.4 5.9 6.1 6.0 6.0 6.4 6.2 6.4 6.3 6.5 6.6 6.6 6.7 6.7 6.6 6.6 6.4 6.3 6.2 6.1 6.4 6.8 7.3 7.3 7.4
6.6 6.2 6.5 6.5 6.5 6.5 6.5 6.6 6.7 6.5 6.7 6.6 7.0 6.6 6.8 7.2 6.6 6.5 6.0 5.1 3.3 3.2 4.5 5.3 5.7 5.9 6.1 6.1 6.1 6.3 6.2 6.4 6.6 6.7 7.2 7.2 6.8 7.0 7.0 6.7 6.3 6.2 6.0 5.9 6.4 6.7 6.8 7.0 7.7
6.2 6.1 6.5 6.5 6.5 6.5 6.5 5.6 6.6 6.5 6.9 7.0 6.9 6.8 6.2 7.0 6.6 6.6 5.3 4.2 3.9 3.6 4.5 5.5 6.1 6.0 5.9 6.0 6.0 6.3 6.2 6.3 6.3 6.6 7.0 6.8 6.9 7.0 6.4 6.5 6.4 6.0 5.8 6.1 6.3 6.5 6.8 7.2 7.8
6.5 6.5 6.5 6.5 6.5 6.5 6.5 6.1 6.3 6.6 6.7 6.8 7.4 6.5 7.0 7.4 6.6 6.0 5.2 4.8 4.4 4.1 4.0 4.7 5.5 6.0 6.1 6.0 6.2 6.3 6.3 6.3 6.3 6.5 6.7 7.3 6.8 6.7 6.6 6.5 6.3 6.0 6.1 6.1 6.3 6.8 7.6 7.6 7.4
6.3 6.5 6.5 6.5 6.5 6.5 6.7 6.9 5.4 6.4 6.6 7.7 7.8 6.5 6.5 7.5 6.8 6.1 5.7 4.9 4.2 3.9 3.9 3.5 4.7 5.2 5.5 5.9 6.3 6.2 6.0 6.2 6.4 6.6 6.7 7.0 6.8 6.5 6.4 5.9 6.1 6.2 6.3 6.4 6.2 6.1 6.7 6.9 6.9
7.5 6.5 6.5 6.5 6.5 6.5 6.8 6.5 4.0 5.1 6.9 7.5 7.5 7.7 7.9 8.1 6.7 5.6 4.8 4.8 4.8 4.7 3.6 3.7 3.7 4.3 4.8 5.5 6.4 6.2 6.3 6.6 6.6 6.7 6.9 6.4 6.0 5.9 5.6 6.2 6.4 6.3 6.1 6.0 5.6 5.5 6.1 7.1 7.4
6.5 6.5 6.5 6.5 6.5 6.5 6.8 6.7 6.0 6.2 6.5 6.3 6.7 8.0 8.3 8.0 6.2 5.8 5.0 4.9 4.1 4.4 4.4 4.0 3.5 3.6 4.7 6.0 5.3 5.7 6.3 6.0 6.0 6.0 6.3 5.3 5.4 5.5 5.9 6.4 6.6 6.6 5.6 5.1 4.7 5.0 5.2 4.8 4.7
6.8 6.5 6.5 6.6 6.9 7.2 6.8 6.8 7.2 6.4 6.5 6.7 6.5 7.3 8.0 7.1 7.0 6.5 5.7 5.2 4.5 4.8 4.0 4.1 3.7 4.2 4.4 4.5 4.4 4.8 5.1 5.3 5.3 5.9 5.4 5.1 5.5 5.5 3.9 3.8 4.4 4.1 4.2 4.0 3.6 4.3 4.3 4.4 4.6
6.5 6.7 6.8 6.8 7.1 7.0 6.6 7.1 5.9 6.6 6.4 5.5 6.3 6.9 7.9 7.2 6.7 6.2 6.3 5.5 5.6 5.2 4.6 4.8 4.8 4.5 4.7 4.8 4.2 4.5 4.4 4.9 4.4 4.6 4.5 4.3 3.9 3.4 3.0 3.1 3.3 3.7 3.3 2.7 3.0 3.0 3.3 3.7 3.6
6.5 6.5 6.7 7.1 7.1 6.9 7.2 6.1 6.7 6.7 6.3 6.5 7.7 7.9 7.8 7.1 7.2 6.4 5.6 5.6 5.7 5.4 5.4 5.0 4.6 4.9 4.7 4.0 4.1 4.5 4.6 5.0 5.4 5.0 5.5 4.7 3.6 2.7 2.8 2.6 2.4 3.1 3.1 2.4 2.6 2.6 2.5 2.9 4.0
6.6 6.8 6.8 7.0 6.9 7.1 6.5 6.6 6.7 6.1 5.5 7.0 7.6 7.2 7.3 7.9 6.4 6.1 5.5 5.7 5.8 5.6 5.5 5.2 5.0 5.8 4.9 3.8 4.5 4.5 5.1 5.7 5.9 5.8 5.9 5.3 4.2 3.3 2.7 2.5 2.2 2.6 2.9 3.0 2.6 2.7 2.4 2.6 4.6
6.9 6.5 6.5 6.7 6.6 6.5 7.1 6.5 6.5 5.9 5.3 6.9 7.2 6.7 6.6 7.1 5.8 5.4 5.7 5.3 5.1 5.9 5.5 5.1 4.4 4.9 3.6 3.8 4.7 4.6 5.6 5.5 5.6 5.6 5.6 5.2 4.8 4.0 3.3 2.4 2.6 2.6 2.9 2.6 2.9 3.1 3.5 3.5 4.7
6.5 6.5 6.5 6.5 6.5 6.8 6.2 6.5 6.6 5.7 5.6 6.6 7.1 6.3 6.9 7.5 5.8 5.9 6.0 5.8 5.6 5.6 4.9 5.0 6.8 5.3 4.4 4.0 3.8 5.0 5.5 5.5 5.2 5.2 6.2 5.3 5.2 4.8 3.1 2.4 2.6 3.2 2.8 2.6 1.7 2.3 3.5 3.3 3.9
6.5 6.5 6.5 6.5 6.7 6.5 6.5 6.5 6.5 6.1 6.3 6.7 6.9 5.7 5.9 6.3 6.6 6.3 6.3 5.8 5.6 5.7 5.0 4.6 4.6 4.8 4.9 4.7 4.9 4.5 5.3 5.5 5.6 6.1 6.0 5.6 5.5 4.8 3.6 3.3 3.2 3.4 2.8 2.1 2.0 2.4 3.4 3.9 4.1
6.5 6.5 6.5 6.5 6.5 6.5 6.5 6.5 6.5 6.0 6.6 6.6 6.7 4.8 7.1 6.7 6.3 6.3 6.5 6.2 5.8 4.8 4.5 4.2 4.1 4.0 4.6 3.2 4.0 4.2 4.4 4.3 5.4 5.5 5.9 5.8 5.7 5.1 4.5 4.0 3.9 4.2 2.6 2.6 2.9 3.9 3.6 3.6 3.7
6.5 6.5 6.5 6.5 6.5 6.5 6.5 6.5 6.5 5.8 5.9 6.4 6.2 4.3 6.8 7.4 6.9 6.2 6.5 6.5 5.9 5.2 4.7 3.8 3.3 3.4 3.7 4.0 3.2 3.3 3.4 3.6 3.5 4.8 5.7 5.7 5.4 5.2 4.9 4.1 4.4 4.4 3.6 3.3 3.5 3.8 4.4 3.8 2.9
6.5 6.5 6.5 6.5 6.5 6.5 6.5 6.5 6.5 6.4 5.6 6.4 5.5 4.7 5.7 7.0 6.4 6.2 6.6 6.4 5.5 4.7 4.6 3.4 3.9 3.6 3.8 3.6 3.3 3.5 3.0 3.3 3.6 4.5 5.0 5.7 5.0 4.9 4.8 4.6 3.8 4.3 3.5 3.4 3.8 4.3 3.4 2.9 2.2
6.5 6.5 6.5 6.5 6.5 6.5 6.5 6.5 6.5 6.3 6.1 5.9 6.1 5.3 5.5 6.0 5.3 5.7 5.6 6.2 5.6 4.4 3.9 3.4 3.2 3.7 3.1 3.6 2.5 2.5 2.3 2.7 3.1 3.7 3.8 4.9 5.2 5.2 5.2 4.7 3.9 3.8 3.3 3.3 3.9 3.7 3.8 3.1 2.7
6.5 6.5 6.5 6.5 6.5 6.5 6.5 6.5 6.5 6.5 6.5 6.3 6.0 5.5 5.5 5.8 5.4 5.1 5.2 5.3 5.3 4.5 4.1 3.5 3.6 3.4 3.0 2.7 3.4 3.8 3.3 2.8 2.7 3.3 3.7 4.2 5.9 5.1 5.0 4.9 4.6 4.0 3.5 3.2 3.4 3.8 3.0 2.3 2.9
6.5 6.5 6.5 6.5 6.5 6.5 6.5 6.5 6.5 6.5 6.5 6.5 6.2 5.7 5.7 5.8 5.5 5.2 5.2 4.8 5.1 4.6 3.9 4.1 3.8 3.3 3.2 3.5 3.6 3.2 3.0 2.3 2.7 3.2 4.4 4.4 4.5 5.7 5.6 4.8 4.4 3.9 3.4 3.2 3.1 4.0 3.9 2.6 3.1
6.5 6.5 6.5 6.5 6.5 6.5 6.5 6.5 6.5 6.5 6.5 6.5 6.5 6.0 5.9 6.0 4.9 6.1 5.3 5.0 4.8 5.1 4.1 4.1 3.6 3.2 3.2 3.6 3.2 3.4 3.3 3.0 3.1 3.3 3.3 3.7 4.1 3.9 5.3 5.2 4.7 4.5 3.8 3.6 3.8 3.4 4.1 3.3 3.1
6.5 6.5 6.5 6.5 6.5 6.5 6.5 6.5 6.5 6.5 6.5 6.5 6.4 6.0 2.9 3.4 5.3 5.2 5.1 5.5 4.7 4.8 4.1 3.9 3.6 3.2 2.8 3.9 3.6 3.1 3.2 2.7 3.4 3.5 3.4 3.3 3.7 4.0 4.1 4.4 3.9 3.5 3.9 4.0 4.0 3.5 3.1 4.0 3.5
6.5 6.5 6.5 6.5 6.5 6.5 6.5 6.5 6.5 6.5 6.0 6.0 5.7 5.4 5.0 3.4 2.7 4.2 4.6 4.3 4.6 4.5 4.2 4.5 3.1 3.7 2.7 3.2 3.8 3.5 3.6 2.6 2.3 3.0 2.7 2.6 3.0 3.5 4.3 4.1 4.3 4.3 4.5 4.6 4.4 3.4 3.4 3.6 3.2
6.5 6.5 6.5 6.5 6.5 6.5 6.5 6.5 6.5 6.5 6.5 6.3 6.2 5.9 5.4 5.1 3.5 3.4 2.6 3.7 5.1 4.4 4.4 4.3 2.8 3.3 2.9 3.0 3.4 3.5 3.2 3.3 3.2 3.3 3.7 2.0 2.4 3.0 3.5 4.5 4.0 4.5 4.5 4.7 4.1 3.6 3.8 2.8 2.9
6.5 6.5 6.5 6.5 6.5 6.5 6.5 6.5 6.5 6.5 6.5 6.5 6.6 6.5 6.4 6.5 5.4 4.5 3.7 3.1 2.5 2.9 3.5 3.4 3.4 3.3 3.2 3.6 3.6 3.4 3.2 2.7 2.8 3.1 3.2 3.6 3.2 3.2 3.0 3.3 3.7 3.6 4.6 4.6 3.6 3.6 3.4 3.2 2.8
6.5 6.5 6.5 6.5 6.5 6.5 6.5 6.5 6.5 6.5 6.5 6.5 6.7 6.7 6.1 5.7 5.9 4.9 2.8 2.5 2.3 2.6 2.0 2.0 1.9 2.2 2.0 3.0 2.5 2.5 2.9 2.9 2.7 3.1 3.9 2.7 2.9 2.6 2.6 2.8 3.2 3.2 3.3 3.9 4.1 3.8 3.7 3.7 3.0
6.5 6.5 6.5 6.5 6.5 6.5 6.5 6.5 6.5 6.5 6.7 6.8 6.7 6.4 5.9 5.1 5.3 5.0 4.8 4.3 3.0 2.9 3.2 4.5 2.4 2.4 2.1 2.0 2.6 2.8 3.3 3.2 3.1 3.3 3.7 3.3 3.1 2.6 2.4 2.6 2.4 2.6 3.1 3.5 3.5 3.6 4.4 3.8 3.9
Wind_Speed
7 9 3 1 2 1 4 3 4 5 8 8 18 4 7 8 3 4 12 12 15 11 15 16 17 16 15 15 14 14 14 15 15 14 15 16 15 16 17 16 15 16 16 16 18 19 20 20 19
8 5 1 1 1 3 3 5 12 13 16 22 14 13 9 6 9 15 12 15 17 15 14 15 16 15 14 16 14 14 13 14 15 14 14 13 15 15 15 15 15 15 16 16 16 18 18 16 15
5 3 2 1 1 4 4 10 13 15 12 10 8 11 5 8 16 11 15 18 18 13 15 17 15 15 15 14 13 13 14 15 14 14 13 13 14 15 16 15 15 14 15 15 15 15 15 14 10
3 2 2 2 3 5 6 14 16 18 16 16 16 12 9 6 8 13 20 18 13 11 14 17 16 15 14 13 13 13 14 14 15 14 15 14 15 16 16 17 15 14 14 15 14 13 14 11 10
2 2 1 3 4 4 6 17 18 14 9 15 21 13 9 8 18 21 20 15 14 9 14 15 16 16 15 13 13 14 14 13 13 14 14 14 16 17 17 16 14 13 12 12 12 12 12 11 14
1 2 1 3 4 6 7 7 18 20 17 17 22 16 6 20 21 19 17 15 17 12 13 14 15 15 15 15 13 14 13 13 14 14 13 13 15 16 16 15 13 11 10 10 10 8 10 10 15
2 1 2 6 8 13 7 5 13 23 22 11 18 17 14 19 18 18 16 14 14 17 13 13 13 14 15 14 14 14 13 13 13 13 14 14 14 15 14 15 13 9 9 8 8 6 9 11 9
2 2 2 3 6 5 3 2 5 10 16 16 19 10 20 20 21 17 15 13 11 10 13 11 12 14 13 12 14 13 13 13 14 14 15 16 14 15 14 14 12 11 8 9 6 4 4 4 4
3 2 5 8 11 7 7 7 5 5 13 14 7 14 20 23 20 16 13 12 9 8 7 11 11 12 12 11 13 13 13 13 14 13 15 14 14 13 14 11 11 12 9 8 4 3 3 1 6
4 4 4 16 14 12 11 5 7 4 10 5 20 17 22 22 20 20 16 11 8 8 7 6 9 10 13 10 12 11 10 11 13 12 12 11 11 13 12 12 11 8 10 6 2 6 7 10 11
3 2 10 7 12 20 15 10 6 8 7 16 22 23 23 22 20 18 18 16 12 11 6 7 8 12 10 10 10 7 9 8 9 11 11 6 7 12 11 10 10 7 6 4 9 9 7 5 7
4 7 4 8 12 16 14 10 8 13 11 17 22 23 22 20 19 20 16 16 14 13 9 8 9 9 8 13 9 8 5 7 8 9 8 13 12 11 8 11 9 7 4 3 1 7 10 13 10
7 7 8 15 12 12 14 9 6 9 15 15 19 21 22 18 16 16 17 15 15 12 11 9 8 8 9 9 10 8 7 8 10 9 14 16 13 6 9 7 3 5 4 2 1 3 5 9 10
9 6 12 10 11 12 11 8 9 5 5 18 19 21 17 19 16 15 17 13 12 11 11 10 7 10 12 7 9 9 8 8 12 12 14 7 13 11 6 7 3 3 1 3 3 2 5 7 5
13 7 11 15 12 13 15 5 11 7 3 17 16 15 16 14 18 20 17 15 13 10 11 9 8 9 8 7 8 9 8 8 5 10 11 13 13 8 6 3 3 2 3 9 8 8 7 4 4
5 5 5 11 12 12 4 6 14 10 6 14 14 10 12 18 19 18 15 13 12 11 13 9 8 8 8 7 7 11 10 10 7 14 12 15 12 8 5 2 3 4 8 6 5 3 3 2 2
1 3 4 13 6 11 2 7 14 11 9 16 14 8 12 19 17 17 15 15 14 12 12 8 8 8 7 7 8 11 12 11 10 8 11 15 17 11 11 5 7 9 7 5 4 2 0 0 2
3 4 2 9 3 8 1 7 14 11 9 15 12 7 15 18 18 17 18 16 16 9 9 10 6 8 6 6 6 5 5 5 9 8 8 7 6 9 14 9 8 6 5 4 3 1 1 1 2
5 4 7 5 2 7 9 7 13 6 8 10 10 7 14 18 14 17 18 18 13 10 11 8 9 7 5 2 4 3 3 1 1 5 10 10 7 6 7 2 5 2 3 3 1 1 1 2 0
4 1 7 12 10 5 4 6 8 2 5 12 9 6 11 13 13 17 19 16 13 12 10 8 10 8 5 4 2 3 3 1 2 3 4 11 9 8 7 4 1 1 2 4 2 1 1 1 2
7 5 8 10 11 4 12 3 2 9 5 7 4 6 10 15 13 14 19 17 13 13 12 10 9 9 6 7 4 3 3 3 2 0 1 4 11 10 7 4 3 4 2 2 0 1 1 1 2
7 8 11 24 10 5 2 4 4 6 11 9 6 5 11 14 15 17 16 15 15 12 11 11 10 8 7 7 4 5 4 3 3 2 1 4 11 12 11 9 6 3 3 2 1 2 0 2 3
11 8 13 21 5 10 6 5 3 6 12 16 6 7 6 9 14 16 17 17 15 13 13 13 10 9 8 8 6 4 3 3 2 2 3 4 5 11 10 10 9 5 4 4 1 2 2 1 2
12 4 6 6 4 1 9 5 4 8 17 15 10 6 7 7 8 11 15 16 14 11 11 12 11 8 8 7 7 7 7 5 2 2 3 4 2 2 6 8 9 6 4 3 1 1 2 1 2
4 7 2 0 1 6 14 4 6 14 21 22 15 13 6 5 2 6 15 15 14 14 12 11 11 8 8 8 7 7 7 7 7 5 4 4 3 2 4 7 5 4 5 5 3 3 1 1 0
4 8 6 5 4 2 12 4 4 4 5 4 2 4 4 6 3 1 7 16 18 17 14 14 12 10 8 8 8 7 7 5 4 5 4 4 4 4 8 8 10 8 7 6 4 2 2 1 2
3 2 6 5 3 4 3 2 7 8 5 6 3 2 3 4 6 7 6 5 13 15 16 16 14 12 10 9 8 7 6 6 5 6 5 4 5 5 7 10 7 9 8 8 5 3 3 3 1
8 4 4 3 4 2 3 5 3 5 6 10 7 6 6 6 1 7 6 8 7 7 5 4 4 5 2 4 7 8 8 7 6 5 6 6 6 5 5 7 7 7 6 7 6 3 3 4 4
4 3 5 4 4 6 4 2 4 11 11 10 8 6 7 8 8 5 7 9 11 12 12 8 6 6 6 4 2 4 7 7 6 6 6 6 5 5 6 6 6 6 6 6 5 5 5 4 5
5 6 5 4 2 3 4 2 10 15 13 10 7 6 7 9 8 6 9 5 8 9 8 7 5 6 7 5 5 5 5 5 6 6 6 6 7 6 6 6 6 6 6 6 6 6 5 6 6
Wind_Direction
161 155 168 228 99 360 258 142 175 141 161 165 155 145 157 109 137 169 134 138 134 134 137 140 131 131 127 124 115 115 115 112 110 105 109 113 113 108 108 108 106 105 104 102 102 105 104 106 109
162 163 243 35 16 146 254 79 96 96 112 103 88 77 55 78 83 117 122 139 135 137 134 130 134 132 126 122 120 116 113 113 110 112 111 113 113 109 107 107 109 108 107 106 107 108 110 108 111
159 215 79 22 145 208 155 133 113 121 112 110 106 73 74 100 112 131 132 135 139 134 131 135 133 133 130 125 117 114 109 109 112 118 114 115 114 114 111 108 106 104 104 102 108 109 109 110 114
156 76 46 105 266 260 95 125 111 98 85 88 108 76 93 114 108 131 137 137 129 131 133 136 135 130 129 126 123 118 112 115 114 119 123 122 123 120 116 117 112 106 104 107 110 111 109 103 105
231 92 207 115 228 241 68 137 140 116 77 108 114 118 104 101 119 133 138 136 131 129 136 140 141 134 132 131 126 120 119 119 120 121 122 126 121 116 118 119 119 114 108 108 112 117 108 92 88
90 101 81 182 203 121 73 28 112 99 112 114 106 119 108 131 138 142 138 136 137 136 142 145 137 138 140 139 131 123 125 122 115 114 117 112 110 113 117 124 123 118 121 108 111 125 116 104 105
171 70 329 284 105 88 68 2 89 109 120 127 125 119 134 142 139 137 134 131 138 138 136 140 149 146 143 140 131 128 124 121 123 114 121 116 117 119 121 128 128 122 111 102 89 94 113 107 103
196 168 189 224 172 102 11 47 312 96 112 117 125 139 150 144 138 132 130 131 136 140 144 145 147 141 146 142 134 130 134 130 125 126 123 121 128 126 128 132 129 110 91 81 69 72 80 93 99
119 277 140 152 178 138 186 128 334 12 129 143 131 145 142 139 130 127 123 123 136 146 151 150 147 147 148 143 139 141 143 139 135 134 129 129 131 126 122 121 124 117 112 93 72 100 80 88 118
151 285 179 170 178 159 168 142 166 140 140 118 121 140 138 138 138 142 135 147 154 154 164 159 142 150 153 147 140 155 152 140 139 134 129 131 146 128 117 127 122 125 111 84 326 139 76 39 9
136 280 319 172 151 148 154 146 164 138 131 166 145 155 149 141 148 150 150 159 160 161 168 165 163 161 160 129 155 161 154 149 153 155 153 178 162 97 98 98 106 109 95 62 353 4 4 1 305
100 230 276 130 138 144 165 153 155 174 185 186 146 161 149 151 151 149 152 158 155 157 168 157 167 162 152 145 164 176 176 159 174 173 158 136 105 112 125 128 137 114 42 354 307 318 326 319 257
168 200 295 252 158 140 137 147 148 125 146 182 142 159 157 160 155 152 152 158 150 154 163 163 170 160 163 153 169 173 189 174 190 159 158 138 131 144 140 133 132 110 113 342 311 5 323 314 313
174 130 158 186 150 139 123 127 130 222 193 159 142 158 164 150 149 149 149 153 152 157 152 153 161 143 157 163 160 177 195 185 161 150 174 170 146 160 177 136 159 76 167 287 265 312 322 330 323
150 151 161 158 153 138 128 120 160 174 151 163 161 158 175 151 147 157 160 151 151 155 144 149 143 142 142 146 174 177 178 175 146 146 147 152 156 160 160 167 132 58 317 306 308 323 323 332 215
167 88 157 170 165 161 146 148 167 189 206 183 174 170 164 151 154 157 149 146 146 139 146 151 147 119 116 139 155 160 173 159 142 139 142 146 165 184 161 193 236 234 239 262 289 303 317 31 4
314 173 168 149 319 163 8 112 185 195 211 179 183 183 140 152 152 151 150 145 151 157 151 142 135 128 136 130 123 126 147 155 151 134 127 148 147 145 145 195 240 225 231 278 256 236 156 262 313
209 183 180 147 136 63 11 127 161 189 192 186 187 160 151 155 158 158 159 154 153 158 152 145 141 132 136 103 98 93 102 131 155 140 133 131 147 132 137 176 216 190 182 213 255 334 360 207 262
270 354 95 78 107 63 316 145 175 182 194 197 189 160 153 166 159 150 157 156 144 156 153 156 128 144 129 107 110 102 131 141 62 151 152 152 153 152 144 153 170 220 161 183 170 157 38 312 86
272 155 95 93 144 95 47 85 173 193 232 199 183 159 160 161 156 144 157 156 152 161 153 149 149 154 158 123 133 128 145 168 138 181 200 155 168 163 172 163 228 213 78 53 42 35 340 314 59
268 202 184 129 107 101 93 58 289 232 255 186 171 159 174 154 150 148 154 163 155 156 155 157 155 163 143 127 108 74 56 65 82 174 256 225 185 172 166 187 184 151 122 159 253 62 134 44 309
270 217 149 147 156 174 192 187 229 261 236 194 177 174 180 169 154 158 159 165 164 162 158 159 159 147 147 142 144 152 158 156 205 207 179 230 198 188 177 186 196 196 148 253 117 177 296 126 32
240 241 174 171 90 110 219 106 146 237 218 211 206 203 165 171 158 165 166 168 175 161 164 166 165 147 152 153 159 138 157 182 206 186 191 226 204 197 179 176 186 176 191 226 100 89 216 283 100
240 125 66 107 120 109 190 149 188 180 199 212 215 209 166 175 172 160 171 170 172 170 162 165 171 169 162 153 153 174 169 168 166 199 180 189 230 177 213 187 191 189 185 220 210 240 232 118 85
147 84 53 28 72 223 177 170 205 199 180 182 210 196 132 65 222 155 158 172 171 174 169 169 172 181 162 161 159 173 185 165 193 194 175 170 176 196 213 195 206 193 215 225 245 257 265 115 251
161 147 156 147 172 225 159 233 299 158 135 164 123 94 103 118 123 232 191 174 176 176 171 173 177 181 170 169 172 178 198 177 190 175 184 187 195 207 190 185 199 201 210 218 225 231 250 200 273
267 140 193 138 164 77 118 71 37 79 71 68 120 137 230 229 161 216 134 161 182 174 176 178 179 184 178 181 170 183 187 185 199 194 202 187 226 219 188 191 182 199 213 215 211 216 260 285 239
145 170 47 15 140 46 284 154 157 132 107 88 84 66 57 12 221 131 126 117 101 100 108 75 154 157 160 184 190 183 191 198 208 180 232 214 204 221 186 179 181 192 213 218 202 223 249 250 271
39 72 69 110 126 173 171 57 212 138 119 104 88 66 62 57 55 74 92 102 101 94 85 68 77 96 91 82 58 241 206 198 201 196 219 203 195 193 191 185 188 193 198 223 225 219 236 258 276
143 157 110 116 263 108 119 100 114 102 95 99 91 86 66 60 56 67 76 86 103 90 92 86 63 75 71 95 80 351 256 209 209 224 192 195 199 202 188 194 207 209 207 217 217 225 231 235 258